Location: Unspecified
(43.4680°N, 87.1740°E)
Time: 21:37:37
(UTC+00:00)

Resurs 01 Rocket - Pass Details

Date: 17 April 2021
Orbit: 634 x 644 km, 97.9° (Epoch: 11 May)

Event Time Altitude Azimuth Distance (km) Brightness Sun altitude
Exits shadow 13:56:44 15° 117° (ESE) 1,715 3.1 -11.0°
Maximum altitude 13:59:30 28° 67° (ENE) 1,219 2.7 -11.4°
Drops below altitude 10° 14:03:18 10° 9° (N) 2,051 4.5 -12.0°
Sets 14:05:45 0° 358° (N) 2,966 5.5 -12.4°
